Regional Weather Roundup
Issued by NWS Newport/Morehead, NC

Current Version | Previous Version | Graphics & Text | Print | Product List | Glossary On
Versions: 1 2 3 4 5 6 7 8 9 10 11 12 13 14 15 16 17 18 19 20 21 22 23 24 25 26 27 28 29 30 31 32 33 34 35 36 37 38 39 40 41 42 43 44 45 46 47 48 49 50
000 ASUS42 KMHX 291913 RWRMHX WEATHER ROUNDUP FOR EASTERN NORTH CAROLINA NATIONAL WEATHER SERVICE NEWPORT/MOREHEAD CITY NC 300 PM EDT SAT AUG 29 2015 NOTE: "FAIR" INDICATES FEW OR NO CLOUDS BELOW 12,000 FEET WITH NO SIGNIFICANT WEATHER AND/OR OBSTRUCTIONS TO VISIBILITY NCZ015>017-031-032-045>047-102-103-292000- NORTH COAST CITY SKY/WX TMP DP RH WIND PRES REMARKS EDENTON CLOUDY 83 61 47 NE8 30.18S ELIZABETH CITY CLOUDY 82 62 50 NE13 30.18F KITTY HAWK MOCLDY 81 65 57 NE7G16 30.16F MANTEO CLOUDY 78 66 66 NE13 30.17F $$ NCZ045>047-081-094-103-104-292000- CENTRAL COAST CITY SKY/WX TMP DP RH WIND PRES REMARKS FRISCO LGT RAIN 75 72 90 NE10G20 30.14F SWANQUARTER NOT AVBL $$ NCZ095-097-098-100-101-292000- SOUTHERN COAST CITY SKY/WX TMP DP RH WIND PRES REMARKS BEAUFORT CLOUDY 83 71 67 N16 30.14F CEDAR ISLAND NOT AVBL JACKSONVILLE CLOUDY 84 64 50 N8 30.15F PINEY ISLAND CLOUDY N/A N/A N/A NE15 30.15F WILMINGTON CLOUDY 85 68 56 NE10 30.15F $$ NCZ011>013-027>030-043-044-078>080-089-090>093-098-292000- COASTAL PLAIN CITY SKY/WX TMP DP RH WIND PRES REMARKS AHOSKIE CLOUDY 83 60 46 N7 30.17F CLINTON CLOUDY 83 60 46 NE6 30.18F ELIZABETHTOWN CLOUDY 83 60 45 CALM 30.17F GOLDSBORO CLOUDY 83 60 46 NE10 30.16F GREENVILLE CLOUDY 84 59 42 NE9 30.18F HAVELOCK PTSUNNY 85 67 54 NE13 30.16F KENANSVILLE CLOUDY 82 56 41 N7 30.18F KINSTON CLOUDY 84 59 42 NE6 30.17F NEW BERN PTSUNNY 83 61 47 N8 30.17F RICHLANDS CLOUDY 82 59 44 N6 30.16F ROCKY MOUNT PTSUNNY 86 52 30 E8 30.17F WASHINGTON PTSUNNY 83 63 50 NE6 30.17F WHITEVILLE PTSUNNY 82 62 50 N5 30.16F $$ AMZ130-135-150-152-154-156-158-170-250-252-270-ANZ085-086-088-633-658-670-292000- MARINE OBSERVATIONS STATION/POSITION TIME TEMP WIND PRES WAVE SWELL AIR SEA DIR/SP/G HT/PER HT/PER (UTC) (F) (DEG/KT/KT) (MB) (FT/S) (FT/S) CHESAPEAKE LIGHT 1900 76 70/ 11/ 12 1022.7 64 E VA BEACH 1850 77 78 50/ 14/ 16 1021.4 4/11 3/11 DUCK NOT AVBL 2 E DUCK 1811 78 N/A 4/11 2/11 OREGON INLET NOT AVBL 13E OREGON INLT 1900 78 N/A 5/11 2/11 HATTERAS CG NOT AVBL DIAMOND BUOY 1850 78 83 20/ 19/ 23 1019.8 6/11 5/11 CAPE LOOKOUT 1900 80 40/ 18/ 22 1020.3 BEAUFORT LAB NOT AVBL 30 SE NEW RVR IN 1808 81 81 50/ 16/ 21 1021.2 30 SE NEW RVR IN 1825 82 N/A 5/11 2/11 27 SE WRIGHTSVLE 1800 77 82 50/ 12/ 16 N/A 5 SE WRIGHTSVLE 1808 81 82 40/ 10/ 14 1021.3 225 S CAPE HAT 1850 81 84 300/ 10/ 14 1020.8 4/10 3/10 41 SE CHARLESTON 1850 80 85 30/ 14/ 16 1020.1 4/11 3/11 $$

USA.gov is the U.S. government's official web portal to all federal, state and local government web resources and services.